Location: Asheville, NC
(35.6000°N, 82.5500°W)
Time: 05:30:36
(UTC-05:00)

Vanguard 2 Rocket - Pass Details

Date: 12 February 2018
Orbit: 555 x 3327 km, 32.9° (Epoch: 17 February)

Event Time Altitude Azimuth Distance (km) Brightness Sun altitude
Rises 01:04:32 0° 236° (SW) 5,976 - -67.6°
Reaches altitude 10° 01:08:01 10° 233° (SW) 5,263 - -67.5°
Maximum altitude 01:24:54 65° 156° (SSE) 3,453 - -66.3°
Exits shadow 01:36:00 34° 90° (E) 4,542 10.3 -65.2°
Drops below altitude 10° 01:44:44 10° 81° (E) 6,056 11.2 -64.2°
Sets 01:49:04 0° 79° (ENE) 6,880 11.7 -63.7°
